Edwards AFB North Base, CA

5:09 PM PDT on September 15, 2019 (GMT -0700)
Edwards AFB North Base

Weather History for K9L2 - August, 2019

Change the Weather History Date:

Saturday, August 17, 2019

  Actual Average (KEDW) Record (KEDW)
Temperature  
Mean Temperature 84 °F -  
Max Temperature 98 °F 96 °F 109 °F (2002)
Min Temperature 72 °F 63 °F 56 °F (2011)
Cooling Degree Days 20    
Growing Degree Days 34 (Base 50)    
Moisture  
Dew Point 33 °F    
Average Humidity 16    
Maximum Humidity 25    
Minimum Humidity 9    
Precipitation  
Precipitation 0.00 in - - ()
Sea Level Pressure  
Sea Level Pressure 29.74 in    
Wind  
Wind Speed 17 mph (SSW)    
Max Wind Speed 25 mph    
Max Gust Speed 36 mph    
Visibility 9 miles    
Events      
Averages and records for this station are not official NWS values.
T = Trace of Precipitation, MM = Missing Value Source: NWS Daily Summary

Daily Weather History Graph

Daily Weather History Graph

Search for Another Location

Airport or City:

Astronomy

Aug. 17, 2019 Rise Set
Actual Time 6:12 AM PDT 7:37 PM PDT
Civil Twilight 5:46 AM PDT 8:04 PM PDT
Nautical Twilight 5:14 AM PDT 8:36 PM PDT
Astronomical Twilight 4:40 AM PDT 9:09 PM PDT
Moon 9:11 PM PDT (8/17) 8:03 AM PDT (8/17)
Length of Visible Light 14h 17m
Length of Day
13h 24m
Waning Gibbous, 95% of the Moon is Illuminated
Aug 17
Waning Gibbous
Aug 23
Last Quarter
Aug 30
New
Sep 5
First Quarter
Sep 13
Full

Hourly Weather History & Observations

Time (PDT) Temp. Dew Point Humidity Pressure Visibility Wind Dir Wind Speed Gust Speed Precip Events Conditions
12:58 AM 77.9 °F 39.4 °F 25% 29.76 in 10.0 mi SSW 13.8 mph - N/A   Clear
1:58 AM 76.8 °F 37.2 °F 24% 29.75 in 10.0 mi SSW 16.1 mph - N/A   Clear
2:58 AM 76.3 °F 35.8 °F 23% 29.75 in 10.0 mi SSW 15.0 mph - N/A   Clear
3:58 AM 75.0 °F 34.7 °F 23% 29.75 in 10.0 mi SSW 15.0 mph - N/A   Clear
4:58 AM 72.9 °F 30.6 °F 21% 29.75 in 10.0 mi SW 12.7 mph - N/A   Clear
5:58 AM 73.4 °F 28.6 °F 19% 29.75 in 10.0 mi SSW 17.3 mph - N/A   Clear
6:58 AM 74.5 °F 30.7 °F 20% 29.78 in 10.0 mi SSW 16.1 mph - N/A   Clear
7:58 AM 78.3 °F 29.8 °F 17% 29.78 in 10.0 mi SSW 16.1 mph 24.2 mph N/A   Clear
8:58 AM 82.8 °F 30.4 °F 15% 29.78 in 10.0 mi South 17.3 mph - N/A   Clear
9:58 AM 88.2 °F 32.9 °F 14% 29.78 in 10.0 mi SSW 16.1 mph - N/A   Clear
10:58 AM 92.7 °F 32.7 °F 12% 29.78 in 8.0 mi SSW 15.0 mph 21.9 mph N/A   Clear
11:58 AM 95.4 °F 30.2 °F 10% 29.76 in 8.0 mi SSW 16.1 mph 23.0 mph N/A   Clear
12:58 PM 97.3 °F 31.6 °F 10% 29.74 in 8.0 mi South 15.0 mph 27.6 mph N/A   Clear
1:58 PM 97.7 °F 29.3 °F 9% 29.73 in 7.0 mi South 21.9 mph 31.1 mph N/A   Clear
2:43 PM 96.8 °F 28.4 °F 9% 29.71 in 5.0 mi SSW 21.9 mph - N/A   Haze
2:58 PM 97.3 °F 29.1 °F 9% 29.71 in 5.0 mi South 23.0 mph 32.2 mph N/A   Haze
3:43 PM 96.8 °F 30.2 °F 10% 29.70 in 8.0 mi SSW 25.3 mph 31.1 mph N/A   Clear
3:58 PM 95.9 °F 32.0 °F 11% 29.70 in 8.0 mi South 24.2 mph 28.8 mph N/A   Clear
4:58 PM 93.6 °F 33.4 °F 12% 29.70 in 9.0 mi SSW 23.0 mph 29.9 mph N/A   Clear
5:58 PM 90.5 °F 31.3 °F 12% 29.70 in 10.0 mi SSW 21.9 mph 35.7 mph N/A   Clear
6:58 PM 86.9 °F 30.2 °F 13% 29.70 in 10.0 mi SSW 21.9 mph 27.6 mph N/A   Clear
7:58 PM 82.0 °F 31.5 °F 16% 29.72 in 10.0 mi SSW 18.4 mph 25.3 mph N/A   Clear
8:58 PM 78.8 °F 35.6 °F 21% 29.75 in 10.0 mi SSW 19.6 mph 26.5 mph N/A   Partly Cloudy
9:58 PM 77.2 °F 36.5 °F 23% 29.75 in 10.0 mi SSW 18.4 mph 25.3 mph N/A   Clear
10:58 PM 75.6 °F 37.2 °F 25% 29.76 in 10.0 mi SSW 18.4 mph 24.2 mph N/A   Clear
11:58 PM 74.7 °F 36.3 °F 25% 29.75 in 10.0 mi SSW 17.3 mph 24.2 mph N/A   Clear